Miscellaneous Local Product
Issued by NWS North Platte, NE

Home | Current Version | Previous Version | Text Only | Print | Product List | Glossary On
Versions: 1 2 3 4 5 6 7 8 9 10 11 12 13 14 15 16 17 18 19 20 21 22 23 24 25 26 27 28 29 30 31 32 33 34 35 36 37 38 39 40 41 42 43 44 45 46 47 48 49 50
676
AXUS43 KLBF 241010
MISLBF


WESTERN AND NORTH CENTRAL NEBRASKA HOURLY WEATHER ROUNDUP
NATIONAL WEATHER SERVICE NORTH PLATTE NE
500 AM CDT TUE MAY 24 2016

NOTE: "FAIR" INDICATES FEW OR NO CLOUDS BELOW 12,000 FEET WITH NO
SIGNIFICANT WEATHER AND/OR OBSTRUCTIONS TO VISIBILITY.

NOTE: STATIONS NOT REPORTING VARIABLES SUCH AS SKY/WEATHER OR
PRESSURE ARE PROVIDED BY RAWS AND APRS NETWORKS AND ARE NOT UNDER
NATIONAL WEATHER SERVICE QUALITY CONTROL.

...OBSERVATIONS IN AND NEAR THE EASTERN PANHANDLE OF NEBRASKA...

CITY           SKY/WX    TMP DP  RH WIND       PRES   REMARKS
PINE RIDGE     CLEAR     41  35  79 CALM      29.86R
CHADRON        CLEAR     44  39  82 N3        29.86R
ALLIANCE       CLEAR     34  32  92 CALM      29.88S
SIDNEY         CLEAR     38  37  97 NW8       29.91R WCI  32
CRESCENT LAKE    N/A     45  44  98 CALM        N/A
BIG SPRINGS      N/A     49  46  89 SW5         N/A
$$

...OBSERVATIONS IN NORTHERN NEBRASKA AND FAR SOUTHERN SOUTH DAKOTA...

CITY           SKY/WX    TMP DP  RH WIND       PRES   REMARKS
WINNER         FAIR      57  41  55 S5        29.80R
VALENTINE      CLEAR     46  41  82 SW5       29.83R
THEDFORD       CLEAR     49  44  83 SW5       29.87R
AINSWORTH      CLEAR     52  43  71 CALM      29.83S
O`NEILL        CLOUDY    52  46  81 SW5       29.83S
ORD            CLOUDY    52  51  97 N7        29.80F
BROKEN BOW     CLOUDY    47  44  90 CALM      29.84F
BUTTE            N/A     57  44  62 SW3         N/A
CHAMBERS         N/A     53  49  86 CALM        N/A
EWING            N/A     57  56  97 CALM        N/A
$$

...OBSERVATIONS IN SOUTHWEST NEBRASKA AND FAR NORTHEAST COLORADO...

CITY           SKY/WX    TMP DP  RH WIND       PRES   REMARKS
WRAY           CLOUDY    52  48  87 NE8       29.86R
HOLYOKE        FAIR      54  46  76 N12       29.87R
IMPERIAL       LGT RAIN  55  49  80 E22       29.84F
OGALLALA       CLOUDY    47  43  84 CALM      29.89R
NORTH PLATTE   CLOUDY    52  48  86 CALM      29.88R
MCCOOK         CLOUDY    55  49  80 N7        29.88R
LEXINGTON      CLOUDY    54  50  87 NW9       29.86R
PAXTON           N/A     51  47  85 CALM        N/A
STAPLETON        N/A     48  44  87 CALM        N/A
GOTHENBURG       N/A     56  45  67 CALM        N/A
CALLAWAY         N/A     48  45  89 CALM        N/A
$$

...OBSERVATIONS IN CENTRAL LINCOLN COUNTY AREA...

CITY           SKY/WX    TMP DP  RH WIND       PRES   REMARKS
N.P. AIRPORT   CLOUDY    52  48  86 CALM      29.88R
N.P. DOWNTOWN    N/A     54  47  78 CALM        N/A
N.P. SOUTHEAST   N/A     53  47  79 CALM        N/A
N.P. HILLCREST   N/A     52  47  84 CALM        N/A
$$

...SOME OBSERVATIONS FROM AROUND THE REGION...

CITY           SKY/WX    TMP DP  RH WIND       PRES   REMARKS
DENVER         MOCLDY    47  41  80 SW7       29.93S
LARAMIE        CLOUDY    33  31  92 S6        29.98S WCI  28
CHEYENNE       CLEAR     40  35  83 W7        29.95S
SCOTTSBLUFF    CLEAR     39  36  89 N5        29.89S
RAPID CITY     CLEAR     45  35  68 NW12      29.85R
BISMARCK       CLEAR     49  45  86 W5        29.80R
PIERRE         CLEAR     48  42  80 N6        29.75S
SIOUX FALLS    PTCLDY    62  60  93 S9        29.80S
OMAHA          CLOUDY    60  57  89 SE3       29.83S
GRAND ISLAND   CLOUDY    58  58 100 CALM      29.83F FOG
KANSAS CITY    CLOUDY    63  60  90 S3        29.91R
WICHITA        DRIZZLE   70  67  90 SE9       29.80F
OKLAHOMA CITY  CLOUDY    73  70  90 S22G36    29.76F
DALLAS         MOCLDY    75  69  81 S14       29.88R
AMARILLO       PTCLDY    67  64  90 S17       29.86S
DODGE CITY     MOCLDY    66  65  96 S14       29.76R
HAYS           CLOUDY    64  54  68 N24G35    29.89R
GOODLAND       CLOUDY    56  43  61 N16       29.86R
$$




USA.gov is the U.S. government's official web portal to all federal, state and local government web resources and services.